Flag for Senegal Weather past 2 weeks in Dakar, Senegal

Now
81 °F

Passing clouds.


Feels Like: 86 °F
Forecast: N/A
Wind: 6 mph from Northwest

Location: Dakar / Yoff

Current Time: Jul 28, 2014 at 8:46:45 PM

Latest Report: Jul 28, 2014 at 8:00 PM


Visibility: N/A

Pressure: 29.83 "Hg

Humidity: 84%

Dew point: 75 °F

Location of DakarLocation

Historic Weather in Dakar — Graph

°F

Dakar temperature yesterday

Maximum temperature yesterday: 88 °F (at 1:00 PM)
Minimum temperature yesterday: 79 °F (at 4:00 AM)
Average temperature yesterday: 83 °F

Past Weeks' High & Low Weather Summary

 TemperatureHumidityPressure
High88 °F (Jul 15, 1:30 PM)89% (Jul 14, 12:30 AM)30.07 "Hg (Jul 14, 12:30 AM)
Low77 °F (Jul 15, 6:30 AM)52% (Jul 20, 3:00 PM)29.80 "Hg (Jul 14, 5:00 PM)
Average82 °F75%29.93 "Hg
* Reported Jul 13 8:00 PM — Jul 28 8:00 PM, Dakar, Weather by CustomWeather, © 2014

Note: Actual official high and low records may vary slightly from our data, if they occured in-between our weather recording intervals... More about our weather records

Advertising

Dakar weather history for previous 24 hours

 ConditionsComfort  
Time TempWeatherWind HumidityBarometerVisibility
8:00 PM
Jul 28
81 °FPassing clouds.6 mph84%29.83 "HgN/A
7:30 PM82 °FScattered clouds.7 mph79%29.83 "HgN/A
7:00 PM82 °FScattered clouds.7 mph79%29.83 "HgN/A
6:30 PM84 °FScattered clouds.7 mph74%29.83 "HgN/A
6:00 PM86 °FScattered clouds.8 mph70%29.80 "HgN/A
5:30 PM86 °FScattered clouds.7 mph70%29.80 "HgN/A
5:00 PM86 °FScattered clouds.8 mph70%29.80 "HgN/A
4:30 PM88 °FScattered clouds.7 mph66%29.83 "HgN/A
4:00 PM88 °FScattered clouds.7 mph66%29.83 "HgN/A
3:30 PM88 °FScattered clouds.8 mph66%29.83 "HgN/A
3:00 PM88 °FScattered clouds.6 mph66%29.83 "HgN/A
2:30 PM88 °FScattered clouds.7 mph66%29.83 "HgN/A
2:00 PM88 °FScattered clouds.6 mph66%29.83 "HgN/A
1:30 PM88 °FScattered clouds.6 mph66%29.86 "HgN/A
1:00 PM88 °FScattered clouds.5 mph66%29.86 "HgN/A
12:30 PM86 °FScattered clouds.6 mph70%29.86 "HgN/A
12:00 PM86 °FScattered clouds.6 mph70%29.86 "HgN/A
11:30 AM86 °FScattered clouds.6 mph66%29.89 "HgN/A
11:00 AM84 °FBroken clouds.6 mph70%29.89 "HgN/A
10:30 AM84 °FBroken clouds.7 mph70%29.89 "HgN/A
10:00 AM84 °FScattered clouds.7 mph70%29.89 "HgN/A
9:30 AM82 °FScattered clouds.9 mph74%29.86 "HgN/A
9:00 AM82 °FSunny.9 mph74%29.86 "Hg10 mi
8:30 AM82 °FSunny.10 mph74%29.86 "Hg10 mi
8:00 AM81 °FSunny.12 mph74%29.83 "Hg10 mi
7:30 AM81 °FSunny.9 mph79%29.83 "Hg10 mi
7:00 AM79 °FPassing clouds.8 mph84%29.83 "HgN/A
6:30 AM79 °FPassing clouds.8 mph84%29.83 "HgN/A
6:00 AM79 °FClear.14 mph84%29.80 "Hg10 mi
5:30 AM79 °FClear.12 mph84%29.80 "Hg10 mi
5:00 AM79 °FClear.12 mph84%29.80 "Hg10 mi
4:30 AM79 °FPassing clouds.12 mph84%29.80 "HgN/A
4:00 AM79 °FClear.12 mph84%29.80 "Hg10 mi
3:30 AM79 °FClear.12 mph84%29.80 "Hg10 mi
2:30 AM81 °FClear.10 mph79%29.83 "Hg10 mi
2:00 AM81 °FClear.10 mph79%29.83 "Hg10 mi
1:30 AM81 °FClear.12 mph74%29.86 "Hg10 mi
1:00 AM81 °FClear.8 mph79%29.86 "Hg10 mi
12:30 AM81 °FClear.7 mph79%29.86 "Hg10 mi
12:00 AM81 °FPassing clouds.7 mph79%29.89 "HgN/A
11:30 PM
Jul 27
81 °FPassing clouds.6 mph84%29.89 "HgN/A
11:00 PM81 °FClear.8 mph84%29.89 "Hg10 mi
10:30 PM81 °FPassing clouds.8 mph84%29.86 "HgN/A
10:00 PM81 °FPassing clouds.9 mph84%29.86 "HgN/A
9:30 PM81 °FClear.10 mph84%29.86 "Hg10 mi
9:00 PM81 °FClear.12 mph79%29.86 "Hg10 mi
8:30 PM81 °FClear.12 mph79%29.86 "Hg10 mi
8:00 PM81 °FClear.15 mph79%29.83 "Hg10 mi
Weather by CustomWeather, © 2014

See weather overviewHow to use our weather pages